Ypsilanti, MI

1:46 AM EDT on May 28, 2018 (GMT -0400)
Willow Run

Weather History for KYIP - January, 2013

Change the Weather History Date:

Monday, January 28, 2013

  Actual Average Record
Temperature  
Mean Temperature 38 °F -  
Max Temperature 45 °F 32 °F 55 °F (2002)
Min Temperature 32 °F 17 °F - (1997)
Degree Days  
Heating Degree Days 26    
Moisture  
Dew Point 35 °F    
Average Humidity 87    
Maximum Humidity 93    
Minimum Humidity 75    
Precipitation  
Precipitation 0.55 in - - ()
Sea Level Pressure  
Sea Level Pressure 29.98 in    
Wind  
Wind Speed 11 mph (SW)    
Max Wind Speed 16 mph    
Max Gust Speed 24 mph    
Visibility 2 miles    
Events Fog , Rain    
Averages and records for this station are not official NWS values.
T = Trace of Precipitation, MM = Missing Value Source: NWS Daily Summary

Daily Weather History Graph

Daily Weather History Graph

Search for Another Location

Airport or City:

Astronomy

Jan. 28, 2013 Rise Set
Actual Time 7:51 AM EST 5:43 PM EST
Civil Twilight 7:21 AM EST 6:13 PM EST
Nautical Twilight 6:47 AM EST 6:47 PM EST
Astronomical Twilight 6:14 AM EST 7:20 PM EST
Moon 7:40 PM EST 8:13 AM EST
Length of Visible Light 10h 52m
Length of Day
9h 52m
Full, 98% of the Moon is Illuminated
Jan 28
Full
Feb 3
Last Quarter
Feb 10
New
Feb 17
First Quarter
Feb 25
Full

Hourly Weather History & Observations

Time (EST) Temp. Windchill Dew Point Humidity Pressure Visibility Wind Dir Wind Speed Gust Speed Precip Events Conditions
12:12 AM 32.0 °F 22.5 °F 26.6 °F 80% 30.15 in 3.0 mi South 12.7 mph 20.7 mph 0.00 in Rain Light Freezing Rain
12:24 AM 33.8 °F 23.5 °F 26.6 °F 75% 30.13 in 2.5 mi SSE 16.1 mph 24.2 mph N/A Rain Light Freezing Rain
12:53 AM 33.1 °F 23.0 °F 28.0 °F 82% 30.13 in 2.5 mi SSE 15.0 mph - N/A Rain Light Freezing Rain
1:03 AM 33.8 °F 23.9 °F 28.4 °F 81% 30.10 in 2.5 mi SSE 15.0 mph - 0.03 in Rain Light Freezing Rain
1:12 AM 33.8 °F 23.9 °F 28.4 °F 81% 30.10 in 3.0 mi SSE 15.0 mph - 0.04 in Rain Light Freezing Rain
1:39 AM 33.8 °F 25.3 °F 28.4 °F 81% 30.09 in 5.0 mi SSE 11.5 mph - 0.05 in Rain Light Freezing Rain
1:49 AM 33.8 °F 25.3 °F 28.4 °F 81% 30.08 in 5.0 mi SSE 11.5 mph - 0.05 in   Haze
1:53 AM 34.0 °F 24.6 °F 28.0 °F 79% 30.09 in 5.0 mi SSE 13.8 mph - 0.05 in   Haze
2:53 AM 34.0 °F 26.0 °F 28.9 °F 82% 30.06 in 3.0 mi SSE 10.4 mph - 0.00 in Rain Light Freezing Rain
3:06 AM 33.8 °F 25.3 °F 30.2 °F 87% 30.03 in 2.5 mi SSE 11.5 mph - 0.00 in Rain Light Freezing Rain
3:46 AM 33.8 °F 27.7 °F 30.2 °F 87% 30.02 in 1.5 mi SSE 6.9 mph - 0.01 in Rain Light Freezing Rain
3:53 AM 34.0 °F 28.0 °F 30.0 °F 85% 30.04 in 1.2 mi SSE 6.9 mph - 0.01 in Rain Light Freezing Rain
4:11 AM 33.8 °F 27.7 °F 30.2 °F 87% 30.01 in 1.0 mi SSE 6.9 mph - 0.00 in Rain Light Freezing Rain
4:53 AM 35.1 °F 29.3 °F 30.9 °F 85% 30.00 in 1.2 mi South 6.9 mph - 0.01 in Rain Light Freezing Rain
5:53 AM 35.1 °F 28.6 °F 32.0 °F 89% 29.97 in 1.0 mi South 8.1 mph - 0.01 in Rain Light Freezing Rain
6:17 AM 35.6 °F 29.9 °F 32.0 °F 87% 29.95 in 0.8 mi South 6.9 mph - 0.01 in Rain Light Freezing Rain
6:53 AM 36.0 °F 30.3 °F 32.0 °F 86% 29.94 in 0.5 mi South 6.9 mph - 0.02 in Rain Light Freezing Rain
7:41 AM 35.6 °F 30.7 °F 33.8 °F 93% 29.92 in 0.2 mi South 5.8 mph - 0.02 in Rain Light Freezing Rain
7:53 AM 36.0 °F 31.1 °F 33.1 °F 89% 29.93 in 0.2 mi South 5.8 mph - 0.02 in Rain Light Freezing Rain
8:53 AM 39.0 °F 31.8 °F 35.1 °F 86% 29.91 in 0.2 mi SSW 11.5 mph - 0.04 in Rain Light Freezing Rain
9:53 AM 39.9 °F 32.1 °F 37.0 °F 89% 29.90 in 0.2 mi SW 13.8 mph - 0.11 in Rain Light Freezing Rain
10:01 AM 39.2 °F 31.6 °F 37.4 °F 93% 29.89 in 0.8 mi SW 12.7 mph - 0.03 in Rain Light Freezing Rain
10:10 AM 39.2 °F 31.6 °F 37.4 °F 93% 29.89 in 1.2 mi SW 12.7 mph - 0.05 in Rain Light Freezing Rain
10:53 AM 41.0 °F 33.5 °F 37.9 °F 89% 29.91 in 1.0 mi SW 13.8 mph - 0.15 in Rain Light Freezing Rain
11:11 AM 41.0 °F 33.5 °F 37.4 °F 87% 29.90 in 0.8 mi SW 13.8 mph - 0.05 in Rain Light Freezing Rain
11:53 AM 42.1 °F 34.9 °F 39.0 °F 89% 29.90 in 0.5 mi SW 13.8 mph - 0.12 in Rain Light Freezing Rain
12:04 PM 42.8 °F 35.8 °F 39.2 °F 87% 29.89 in 0.2 mi SW 13.8 mph - 0.01 in Rain Light Freezing Rain
12:53 PM 42.1 °F 35.2 °F 39.9 °F 92% 29.88 in 0.2 mi SW 12.7 mph - 0.01 in Rain Light Freezing Rain
1:16 PM 42.8 °F 36.2 °F 39.2 °F 87% 29.86 in 0.2 mi SW 12.7 mph - 0.00 in Fog Fog
1:53 PM 44.1 °F 37.7 °F 39.9 °F 85% 29.87 in 0.2 mi SW 12.7 mph - 0.00 in Fog Fog
2:53 PM 44.1 °F 38.1 °F 41.0 °F 89% 29.88 in 0.2 mi SW 11.5 mph - N/A Fog Fog
3:53 PM 45.0 °F 39.7 °F 41.0 °F 86% 29.89 in 0.2 mi SW 10.4 mph - N/A Fog Fog
4:53 PM 44.1 °F 39.5 °F 41.0 °F 89% 29.91 in 0.2 mi SW 8.1 mph - N/A Fog Fog
5:07 PM 44.6 °F 40.2 °F 41.0 °F 87% 29.91 in 0.2 mi WSW 8.1 mph - N/A Fog Fog
5:25 PM 44.6 °F 39.7 °F 42.8 °F 93% 29.92 in 1.0 mi WSW 9.2 mph - N/A   Overcast
5:51 PM 44.6 °F 39.7 °F 42.8 °F 93% 29.93 in 2.0 mi West 9.2 mph - N/A   Overcast
5:53 PM 45.0 °F 39.3 °F 42.1 °F 90% 29.94 in 3.0 mi West 11.5 mph - N/A   Overcast
6:27 PM 44.6 °F 41.4 °F 41.0 °F 87% 29.95 in 5.0 mi WNW 5.8 mph - N/A   Overcast
6:35 PM 44.6 °F 40.7 °F 41.0 °F 87% 29.96 in 4.0 mi WNW 6.9 mph - N/A   Overcast
6:53 PM 43.0 °F 38.8 °F 39.9 °F 89% 29.97 in 4.0 mi WNW 6.9 mph - N/A   Overcast
7:53 PM 42.1 °F 37.1 °F 39.0 °F 89% 30.00 in 4.0 mi NW 8.1 mph - N/A   Overcast
8:26 PM 41.0 °F 37.1 °F 37.4 °F 87% 30.00 in 2.0 mi NNW 5.8 mph - N/A   Overcast
8:39 PM 41.0 °F 35.8 °F 37.4 °F 87% 30.00 in 2.0 mi NW 8.1 mph - N/A   Overcast
8:53 PM 39.9 °F 35.1 °F 37.0 °F 89% 30.02 in 2.5 mi NW 6.9 mph - N/A   Overcast
9:11 PM 39.2 °F 35.9 °F 37.4 °F 93% 30.01 in 1.5 mi NNW 4.6 mph - N/A   Overcast
9:53 PM 39.0 °F 36.8 °F 36.0 °F 89% 30.02 in 1.8 mi NNW 3.5 mph - N/A   Overcast
10:02 PM 39.2 °F 35.9 °F 35.6 °F 87% 30.01 in 2.0 mi NNW 4.6 mph - N/A   Overcast
10:13 PM 39.2 °F 35.0 °F 35.6 °F 87% 30.01 in 3.0 mi NNW 5.8 mph - N/A   Overcast
10:53 PM 39.0 °F 34.0 °F 34.0 °F 82% 30.03 in 6.0 mi NNW 6.9 mph - N/A   Haze
11:01 PM 39.2 °F 35.9 °F 33.8 °F 81% 30.02 in 6.0 mi NNW 4.6 mph - N/A   Haze
11:46 PM 37.4 °F - 33.8 °F 87% 30.02 in 5.0 mi Calm Calm - N/A   Overcast
11:53 PM 37.9 °F - 34.0 °F 86% 30.03 in 5.0 mi Calm Calm - N/A   Overcast